{"data":{"norad_id":68468,"intl_designator":"2026-067BE","name":"ERMIS-1","alt_names":[],"object_type":"PAYLOAD","status":"ACTIVE","operator":null,"country":"GREC","launch_date":"2026-03-30","launch_site_code":"AFWTR","launch_vehicle":null,"mission":null,"orbit_class":"UNKNOWN","rcs_meters":null,"size_class":null,"mass_kg":null,"dimensions":null,"purposes":[],"wikipedia_slug":null,"has_3d_model":false,"image_url":null,"decayed_at":null,"tle_current":{"epoch":"2026-09-20T03:42:04.963104Z","epoch_age_seconds":99595,"freshness":"FRESH","line1":"1 68468U 26067BE  26263.15422411  .00006065  00000+0  29259-3 0  9998","line2":"2 68468  97.4641 220.2148 0008794  86.4720 273.7520 15.19022289 26349","mean_motion":15.19022289,"eccentricity":0.0008794,"inclination_deg":97.4641,"raan_deg":220.2148,"arg_perigee_deg":86.472,"mean_anomaly_deg":273.752,"bstar":0.00029259,"rev_number":2634,"period_min":94.797818993688,"perigee_km":502.73782121094,"apogee_km":514.85055578527,"semimajor_km":6886.9311884981,"source":"CELESTRAK","updated_at":"2026-09-20T09:00:24.240280Z"}}}